{"data":{"norad_id":28874,"epoch":"2026-05-24T10:23:07.865088Z","epoch_age_seconds":121177,"freshness":"FRESH","line1":"1 28874U 05038A   26144.43272992 -.00000073  00000+0  00000+0 0  9999","line2":"2 28874  54.8982 274.1358 0127727 296.0025  73.3808  2.00567298151361","mean_motion":2.00567298,"eccentricity":0.0127727,"inclination_deg":54.8982,"raan_deg":274.1358,"arg_perigee_deg":296.0025,"mean_anomaly_deg":73.3808,"bstar":0,"rev_number":15136,"period_min":717.96350370139,"perigee_km":19842.641506064,"apogee_km":20521.127884276,"semimajor_km":26560.02169517,"source":"CELESTRAK","updated_at":"2026-05-25T13:38:23.728467Z"}}